Retour au catalogue

STARLINK-35615

ActifCommunicationsVLEO
NORAD 66257·PAYLOAD·🇺🇸 United States

Lancé Oct 29, 2025 depuis Cape Canaveral Space Force Station

Loading…

Prochains Passages (prochaines 24 heures)

TLE

FraisSource: CelesTrak SupGP

Époque: Sep 15, 2026, 03:36 UTC

1 66257C 25245Z   26258.15048611  .00028155  00000+0  83189-3 0  2583
2 66257  53.1571 122.7870 0001244  84.2508 110.4614 15.34374597    11

Suivez STARLINK-35615 en temps réel avec AllMySat

Download on the App Store